sat.trackr.live / text

‹ back to catalog

STARLINK-6051

NORAD 56463 · 2023-064R

PAYLOAD ACTIVE UNKNOWN

§ Identity

Operator
Country
US
Launch date
2023-05-10
Launch site
AFWTR
Launch vehicle
Mass (kg)
RCS (m²)

Purposes: comms

External: N2YO · Heavens-Above · Gunter

§ Orbital elements

Epoch: 2026-05-25T04:42:32.207040Z

Period
96.11 min
Inclination
69.9984°
Eccentricity
0.0002592
Mean motion
14.98330172 rev/d
Perigee alt
570.3 km
Apogee alt
573.9 km
Semi-major
6,950.2 km
B*
2.1486e-5
RAAN
311.6400°
Arg perigee
263.0327°
Mean anomaly
97.0537°
Rev number
16,670

§ Raw data

STARLINK-60511 56463U 23064R   26145.19620610  .00000163  00000+0  21486-4 0  99962 56463  69.9984 311.6400 0002592 263.0327  97.0537 14.98330172166706

JSON: /api/v1/satellites/56463 · /tle

For live sub-satellite position, see the globe view (requires WebGL).

§ Visibility from observer

Set your observer location to see the next 7 days of passes ≥ 10°. The values pass through the URL so the page stays shareable.

No JS? Fill the form by hand. The geolocation button needs JavaScript.